Location: Goettingen
(51.5300°N, 9.9433°E)
Time: 00:44:13
(UTC+02:00)

ISS - Pass Details

Date: 26 May 2017
Orbit: 402 x 408 km, 51.6° (Epoch: 30 May)

Event Time Altitude Azimuth Distance (km) Brightness Sun altitude
Rises 23:19:50 0° 251° (WSW) 2,330 0.1 -12.8°
Reaches altitude 10° 23:21:55 10° 249° (WSW) 1,470 -0.9 -12.9°
Maximum altitude 23:25:12 71° 165° (SSE) 435 -3.9 -13.2°
Drops below altitude 10° 23:28:29 10° 81° (E) 1,470 -1.2 -13.4°
Sets 23:30:34 0° 79° (E) 2,331 -0.1 -13.5°
